World > North America > United States > Mississippi > Lynn Creek  

Lynn Creek, MS Hourly Weather Updates

Feedback E-mail the Weather

Quick Clicks

Lynn Creek, MS Weather Maps

°F °C°F °C
Lynn Creek Weather Map
UTC Time: 5/19/2024, 18:18
Your Time:

Lynn Creek, MS Regional Weather

Expires:202405191900;;492398
ASUS44 KJAN 191810
RWRMS 

MISSISSIPPI HOURLY WEATHER ROUNDUP
NATIONAL WEATHER SERVICE JACKSON MS
100 PM CDT SUN MAY 19 2024

NOTE: "FAIR: INDICATES FEW OR NO CLOUDS BELOW 12,000 FEET WITH NO
SIGNIFICANT WEATHER AND/OR OBSTRUCTIONS TO VISIBILITY.


MSZ003>006-009-014>017-022>024-029>033-037>039-191900-
NORTHEAST MISSISSIPPI
  
CITY           SKY/WX    TMP DP  RH WIND       PRES   REMARKS
ABERDEEN       MOSUNNY   84  68  58 VRB8      30.00F                  
COLUMBUS AFB   MOSUNNY   85  66  52 NE14      29.94F                  
6HR MIN TEMP:  65; 6HR MAX TEMP:  85;                                

CORINTH        MOSUNNY   82  64  54 N5G13     30.01F                  
GOLDN TRIANGLE MOSUNNY   84  68  58 N9        29.99F                  
IUKA             N/A     82  67  60 VRB6      30.01F                  
LOUISVILLE     MOSUNNY   84  64  51 N12       30.03F                  
STARKVILLE     MOSUNNY   82  66  57 N12       29.97F                  
TUPELO         PTSUNNY   84  65  52 MISG      29.99F                  
6HR MIN TEMP:  67; 6HR MAX TEMP:  84;                                

$$


SKY/WX - Weather  TMP - Temperature  DP - Dew Point  RH - Humidity
WIND - Wind Direction/Speed PRES - Barometric Pressure VSB - Visibility
WCI - Wind Chill Index E13G22 Wind - East Wind 13 mph/Gusts of 22 mph

Trending Headlines

Trending Entertainment Headlines

Lynn Creek Radar Loop

Use the map search tool if you want to place a location marker on the radar map...

Lynn Creek Quick Facts

National Two Day Weather Forecast


E-mail the Lynn Creek Weather Forecast

Voice your opinion or tell us about page issues...